Time,TemperatureF,DewpointF,PressureIn,WindDirection,WindDirectionDegrees,WindSpeedMPH,WindSpeedGustMPH,Humidity,HourlyPrecipIn,Conditions,Clouds,dailyrainin,SoftwareType,DateUTC
2013-03-22 00:00:00,38.9,37.1,30.33,North,-999,-999.0,-999.0,93,0.00,,,0.00,AD6XL-WX-0.1,2013-03-22 07:00:00,
2013-03-22 00:06:00,39.0,37.1,30.33,North,-999,-999.0,-999.0,93,0.00,,,0.00,AD6XL-WX-0.1,2013-03-22 07:06:00,
2013-03-22 00:11:00,39.0,37.1,30.33,North,-999,-999.0,-999.0,93,0.00,,,0.00,AD6XL-WX-0.1,2013-03-22 07:11:00,
2013-03-22 00:16:00,38.9,37.1,30.33,North,-999,-999.0,-999.0,93,0.00,,,0.00,AD6XL-WX-0.1,2013-03-22 07:16:00,
2013-03-22 00:21:00,38.8,37.0,30.33,North,-999,-999.0,-999.0,93,0.00,,,0.00,AD6XL-WX-0.1,2013-03-22 07:21:00,
2013-03-22 00:26:00,38.7,37.0,30.33,North,-999,-999.0,-999.0,93,0.00,,,0.00,AD6XL-WX-0.1,2013-03-22 07:26:00,
2013-03-22 00:31:00,38.5,37.0,30.33,North,-999,-999.0,-999.0,94,0.00,,,0.00,AD6XL-WX-0.1,2013-03-22 07:31:00,
2013-03-22 00:36:00,38.5,37.0,30.33,North,-999,-999.0,-999.0,94,0.00,,,0.00,AD6XL-WX-0.1,2013-03-22 07:36:00,
2013-03-22 00:41:00,38.5,36.9,30.33,North,-999,-999.0,-999.0,93,0.00,,,0.00,AD6XL-WX-0.1,2013-03-22 07:41:00,
2013-03-22 00:46:00,38.5,36.9,30.33,North,-999,-999.0,-999.0,93,0.00,,,0.00,AD6XL-WX-0.1,2013-03-22 07:46:00,
2013-03-22 00:51:00,38.6,37.0,30.33,North,-999,-999.0,-999.0,93,0.00,,,0.00,AD6XL-WX-0.1,2013-03-22 07:51:00,
2013-03-22 00:56:00,38.7,37.0,30.33,North,-999,-999.0,-999.0,93,0.00,,,0.00,AD6XL-WX-0.1,2013-03-22 07:56:00,
2013-03-22 01:01:00,38.7,36.9,30.33,North,-999,-999.0,-999.0,93,0.00,,,0.00,AD6XL-WX-0.1,2013-03-22 08:01:00,
2013-03-22 01:07:00,38.8,37.0,30.33,North,-999,-999.0,-999.0,93,0.00,,,0.00,AD6XL-WX-0.1,2013-03-22 08:07:00,
2013-03-22 01:12:00,38.7,36.9,30.33,North,-999,-999.0,-999.0,93,0.00,,,0.00,AD6XL-WX-0.1,2013-03-22 08:12:00,
2013-03-22 01:17:00,38.7,37.0,30.33,North,-999,-999.0,-999.0,93,0.00,,,0.00,AD6XL-WX-0.1,2013-03-22 08:17:00,
2013-03-22 01:22:00,38.6,37.2,30.32,North,-999,-999.0,-999.0,94,0.00,,,0.00,AD6XL-WX-0.1,2013-03-22 08:22:00,
2013-03-22 01:27:00,38.5,37.1,30.32,North,-999,-999.0,-999.0,94,0.00,,,0.00,AD6XL-WX-0.1,2013-03-22 08:27:00,
2013-03-22 01:32:00,38.5,37.1,30.32,North,-999,-999.0,-999.0,94,0.00,,,0.00,AD6XL-WX-0.1,2013-03-22 08:32:00,
2013-03-22 01:37:00,38.4,37.1,30.32,North,-999,-999.0,-999.0,95,0.00,,,0.00,AD6XL-WX-0.1,2013-03-22 08:37:00,
2013-03-22 01:42:00,38.1,36.9,30.32,North,-999,-999.0,-999.0,95,0.00,,,0.00,AD6XL-WX-0.1,2013-03-22 08:42:00,
2013-03-22 01:47:00,37.9,36.7,30.32,North,-999,-999.0,-999.0,95,0.00,,,0.00,AD6XL-WX-0.1,2013-03-22 08:47:00,
2013-03-22 01:52:00,37.8,36.7,30.32,North,-999,-999.0,-999.0,95,0.00,,,0.00,AD6XL-WX-0.1,2013-03-22 08:52:00,
2013-03-22 01:57:00,37.6,36.6,30.32,North,-999,-999.0,-999.0,95,0.00,,,0.00,AD6XL-WX-0.1,2013-03-22 08:57:00,
2013-03-22 02:02:00,37.6,36.7,30.32,North,-999,-999.0,-999.0,96,0.00,,,0.00,AD6XL-WX-0.1,2013-03-22 09:02:00,
2013-03-22 02:07:00,37.6,36.9,30.32,North,-999,-999.0,-999.0,97,0.00,,,0.00,AD6XL-WX-0.1,2013-03-22 09:07:00,
2013-03-22 02:12:00,37.6,36.9,30.32,North,-999,-999.0,-999.0,97,0.00,,,0.00,AD6XL-WX-0.1,2013-03-22 09:12:00,
2013-03-22 02:18:00,37.5,36.8,30.32,North,-999,-999.0,-999.0,97,0.00,,,0.00,AD6XL-WX-0.1,2013-03-22 09:18:00,
2013-03-22 02:23:00,37.4,36.8,30.32,North,-999,-999.0,-999.0,97,0.00,,,0.00,AD6XL-WX-0.1,2013-03-22 09:23:00,
2013-03-22 02:28:00,37.2,36.7,30.32,North,-999,-999.0,-999.0,97,0.00,,,0.00,AD6XL-WX-0.1,2013-03-22 09:28:00,
2013-03-22 02:33:00,37.2,36.6,30.33,North,-999,-999.0,-999.0,97,0.00,,,0.00,AD6XL-WX-0.1,2013-03-22 09:33:00,
2013-03-22 02:38:00,37.1,36.6,30.33,North,-999,-999.0,-999.0,98,0.00,,,0.00,AD6XL-WX-0.1,2013-03-22 09:38:00,
2013-03-22 02:43:00,36.9,36.5,30.33,North,-999,-999.0,-999.0,98,0.00,,,0.00,AD6XL-WX-0.1,2013-03-22 09:43:00,
2013-03-22 02:48:00,36.9,36.5,30.33,North,-999,-999.0,-999.0,98,0.00,,,0.00,AD6XL-WX-0.1,2013-03-22 09:48:00,
2013-03-22 02:53:00,36.9,36.5,30.33,North,-999,-999.0,-999.0,98,0.00,,,0.00,AD6XL-WX-0.1,2013-03-22 09:53:00,
2013-03-22 02:58:00,36.9,36.5,30.33,North,-999,-999.0,-999.0,98,0.00,,,0.00,AD6XL-WX-0.1,2013-03-22 09:58:00,
2013-03-22 03:03:00,36.7,36.3,30.33,North,-999,-999.0,-999.0,98,0.00,,,0.00,AD6XL-WX-0.1,2013-03-22 10:03:00,
2013-03-22 03:08:00,36.5,36.1,30.33,North,-999,-999.0,-999.0,98,0.00,,,0.00,AD6XL-WX-0.1,2013-03-22 10:08:00,
2013-03-22 03:13:00,36.3,35.8,30.32,North,-999,-999.0,-999.0,98,0.00,,,0.00,AD6XL-WX-0.1,2013-03-22 10:13:00,
2013-03-22 03:18:00,36.0,35.6,30.32,North,-999,-999.0,-999.0,98,0.00,,,0.00,AD6XL-WX-0.1,2013-03-22 10:18:00,
2013-03-22 03:23:00,35.8,35.5,30.32,North,-999,-999.0,-999.0,98,0.00,,,0.00,AD6XL-WX-0.1,2013-03-22 10:23:00,
2013-03-22 03:29:00,35.5,35.1,30.32,North,-999,-999.0,-999.0,98,0.00,,,0.00,AD6XL-WX-0.1,2013-03-22 10:29:00,
2013-03-22 03:34:00,35.4,35.0,30.33,North,-999,-999.0,-999.0,98,0.00,,,0.00,AD6XL-WX-0.1,2013-03-22 10:34:00,
2013-03-22 03:39:00,35.1,34.8,30.33,North,-999,-999.0,-999.0,98,0.00,,,0.00,AD6XL-WX-0.1,2013-03-22 10:39:00,
2013-03-22 03:44:00,34.9,34.5,30.32,North,-999,-999.0,-999.0,98,0.00,,,0.00,AD6XL-WX-0.1,2013-03-22 10:44:00,
2013-03-22 03:49:00,34.9,34.6,30.32,North,-999,-999.0,-999.0,98,0.00,,,0.00,AD6XL-WX-0.1,2013-03-22 10:49:00,
2013-03-22 03:54:00,34.7,34.4,30.32,North,-999,-999.0,-999.0,98,0.00,,,0.00,AD6XL-WX-0.1,2013-03-22 10:54:00,
2013-03-22 03:59:00,34.7,34.5,30.32,North,-999,-999.0,-999.0,99,0.00,,,0.00,AD6XL-WX-0.1,2013-03-22 10:59:00,
2013-03-22 04:04:00,34.8,34.7,30.32,North,-999,-999.0,-999.0,99,0.00,,,0.00,AD6XL-WX-0.1,2013-03-22 11:04:00,
2013-03-22 04:09:00,34.7,34.5,30.32,North,-999,-999.0,-999.0,99,0.00,,,0.00,AD6XL-WX-0.1,2013-03-22 11:09:00,
2013-03-22 04:14:00,34.5,34.3,30.32,North,-999,-999.0,-999.0,99,0.00,,,0.00,AD6XL-WX-0.1,2013-03-22 11:14:00,
2013-03-22 04:19:00,34.4,34.2,30.32,North,-999,-999.0,-999.0,99,0.00,,,0.00,AD6XL-WX-0.1,2013-03-22 11:19:00,
2013-03-22 04:24:00,34.2,34.1,30.32,North,-999,-999.0,-999.0,99,0.00,,,0.00,AD6XL-WX-0.1,2013-03-22 11:24:00,
2013-03-22 04:29:00,34.1,34.0,30.32,North,-999,-999.0,-999.0,99,0.00,,,0.00,AD6XL-WX-0.1,2013-03-22 11:29:00,
2013-03-22 04:34:00,34.0,33.9,30.32,North,-999,-999.0,-999.0,99,0.00,,,0.00,AD6XL-WX-0.1,2013-03-22 11:34:00,
2013-03-22 04:40:00,33.9,33.9,30.32,North,-999,-999.0,-999.0,99,0.00,,,0.00,AD6XL-WX-0.1,2013-03-22 11:40:00,
2013-03-22 04:45:00,33.6,33.6,30.32,North,-999,-999.0,-999.0,99,0.00,,,0.00,AD6XL-WX-0.1,2013-03-22 11:45:00,
2013-03-22 04:50:00,33.5,33.5,30.32,North,-999,-999.0,-999.0,99,0.00,,,0.00,AD6XL-WX-0.1,2013-03-22 11:50:00,
2013-03-22 04:55:00,33.4,33.4,30.32,North,-999,-999.0,-999.0,100,0.00,,,0.00,AD6XL-WX-0.1,2013-03-22 11:55:00,
2013-03-22 05:00:00,33.2,33.2,30.32,North,-999,-999.0,-999.0,100,0.00,,,0.00,AD6XL-WX-0.1,2013-03-22 12:00:00,
2013-03-22 05:05:00,33.1,33.1,30.32,North,-999,-999.0,-999.0,100,0.00,,,0.00,AD6XL-WX-0.1,2013-03-22 12:05:00,
2013-03-22 05:10:00,33.0,33.0,30.32,North,-999,-999.0,-999.0,100,0.00,,,0.00,AD6XL-WX-0.1,2013-03-22 12:10:00,
2013-03-22 05:15:00,32.9,32.9,30.32,North,-999,-999.0,-999.0,100,0.00,,,0.00,AD6XL-WX-0.1,2013-03-22 12:15:00,
2013-03-22 05:20:00,32.8,32.8,30.33,North,-999,-999.0,-999.0,100,0.00,,,0.00,AD6XL-WX-0.1,2013-03-22 12:20:00,
2013-03-22 05:25:00,32.7,32.7,30.33,North,-999,-999.0,-999.0,100,0.00,,,0.00,AD6XL-WX-0.1,2013-03-22 12:25:00,
2013-03-22 05:30:00,32.7,32.7,30.33,North,-999,-999.0,-999.0,100,0.00,,,0.00,AD6XL-WX-0.1,2013-03-22 12:30:00,
2013-03-22 05:35:00,32.7,32.7,30.33,North,-999,-999.0,-999.0,100,0.00,,,0.00,AD6XL-WX-0.1,2013-03-22 12:35:00,
2013-03-22 05:41:00,32.7,32.7,30.33,North,-999,-999.0,-999.0,100,0.00,,,0.00,AD6XL-WX-0.1,2013-03-22 12:41:00,
2013-03-22 05:46:00,32.7,32.7,30.33,North,-999,-999.0,-999.0,100,0.00,,,0.00,AD6XL-WX-0.1,2013-03-22 12:46:00,
2013-03-22 05:51:00,32.7,32.7,30.33,North,-999,-999.0,-999.0,100,0.00,,,0.00,AD6XL-WX-0.1,2013-03-22 12:51:00,
2013-03-22 05:56:00,32.5,32.5,30.33,North,-999,-999.0,-999.0,100,0.00,,,0.00,AD6XL-WX-0.1,2013-03-22 12:56:00,
2013-03-22 06:01:00,32.5,32.5,30.33,North,-999,-999.0,-999.0,100,0.00,,,0.00,AD6XL-WX-0.1,2013-03-22 13:01:00,
2013-03-22 06:06:00,32.4,32.4,30.33,North,-999,-999.0,-999.0,100,0.00,,,0.00,AD6XL-WX-0.1,2013-03-22 13:06:00,
2013-03-22 06:11:00,32.2,32.2,30.33,North,-999,-999.0,-999.0,100,0.00,,,0.00,AD6XL-WX-0.1,2013-03-22 13:11:00,
2013-03-22 06:16:00,32.2,32.2,30.33,North,-999,-999.0,-999.0,100,0.00,,,0.00,AD6XL-WX-0.1,2013-03-22 13:16:00,
2013-03-22 06:22:00,32.2,32.2,30.33,North,-999,-999.0,-999.0,100,0.00,,,0.00,AD6XL-WX-0.1,2013-03-22 13:22:00,
2013-03-22 06:27:00,32.2,32.2,30.33,North,-999,-999.0,-999.0,100,0.00,,,0.00,AD6XL-WX-0.1,2013-03-22 13:27:00,
2013-03-22 06:32:00,32.1,32.1,30.33,North,-999,-999.0,-999.0,100,0.00,,,0.00,AD6XL-WX-0.1,2013-03-22 13:32:00,
2013-03-22 06:37:00,32.1,32.1,30.34,North,-999,-999.0,-999.0,100,0.00,,,0.00,AD6XL-WX-0.1,2013-03-22 13:37:00,
2013-03-22 06:42:00,31.9,31.9,30.34,North,-999,-999.0,-999.0,100,0.00,,,0.00,AD6XL-WX-0.1,2013-03-22 13:42:00,
2013-03-22 06:47:00,31.9,31.9,30.33,North,-999,-999.0,-999.0,100,0.00,,,0.00,AD6XL-WX-0.1,2013-03-22 13:47:00,
2013-03-22 06:52:00,31.8,31.8,30.33,North,-999,-999.0,-999.0,100,0.00,,,0.00,AD6XL-WX-0.1,2013-03-22 13:52:00,
2013-03-22 06:57:00,31.8,31.8,30.33,North,-999,-999.0,-999.0,100,0.00,,,0.00,AD6XL-WX-0.1,2013-03-22 13:57:00,
2013-03-22 07:02:00,31.8,31.8,30.33,North,-999,-999.0,-999.0,100,0.00,,,0.00,AD6XL-WX-0.1,2013-03-22 14:02:00,
2013-03-22 07:08:00,31.8,31.8,30.33,North,-999,-999.0,-999.0,100,0.00,,,0.00,AD6XL-WX-0.1,2013-03-22 14:08:00,
2013-03-22 07:13:00,31.8,31.8,30.33,North,-999,-999.0,-999.0,100,0.00,,,0.00,AD6XL-WX-0.1,2013-03-22 14:13:00,
2013-03-22 07:18:00,31.9,31.9,30.33,North,-999,-999.0,-999.0,100,0.00,,,0.00,AD6XL-WX-0.1,2013-03-22 14:18:00,
2013-03-22 07:23:00,32.0,32.0,30.34,North,-999,-999.0,-999.0,100,0.00,,,0.00,AD6XL-WX-0.1,2013-03-22 14:23:00,
2013-03-22 07:28:00,32.2,32.2,30.34,North,-999,-999.0,-999.0,100,0.00,,,0.00,AD6XL-WX-0.1,2013-03-22 14:28:00,
2013-03-22 07:33:00,32.3,32.3,30.34,North,-999,-999.0,-999.0,100,0.00,,,0.00,AD6XL-WX-0.1,2013-03-22 14:33:00,
2013-03-22 07:38:00,32.5,32.5,30.34,North,-999,-999.0,-999.0,100,0.00,,,0.00,AD6XL-WX-0.1,2013-03-22 14:38:00,
2013-03-22 07:43:00,32.6,32.6,30.34,North,-999,-999.0,-999.0,100,0.00,,,0.00,AD6XL-WX-0.1,2013-03-22 14:43:00,
2013-03-22 07:48:00,32.7,32.7,30.34,North,-999,-999.0,-999.0,100,0.00,,,0.00,AD6XL-WX-0.1,2013-03-22 14:48:00,
2013-03-22 07:53:00,33.0,33.0,30.34,North,-999,-999.0,-999.0,100,0.00,,,0.00,AD6XL-WX-0.1,2013-03-22 14:53:00,
2013-03-22 07:58:00,33.1,33.1,30.34,North,-999,-999.0,-999.0,100,0.00,,,0.00,AD6XL-WX-0.1,2013-03-22 14:58:00,
2013-03-22 08:04:00,33.2,33.2,30.34,North,-999,-999.0,-999.0,100,0.00,,,0.00,AD6XL-WX-0.1,2013-03-22 15:04:00,
2013-03-22 08:09:00,33.4,33.4,30.34,North,-999,-999.0,-999.0,100,0.00,,,0.00,AD6XL-WX-0.1,2013-03-22 15:09:00,
2013-03-22 08:14:00,33.7,33.7,30.34,North,-999,-999.0,-999.0,100,0.00,,,0.00,AD6XL-WX-0.1,2013-03-22 15:14:00,
2013-03-22 08:19:00,34.0,34.0,30.34,North,-999,-999.0,-999.0,100,0.00,,,0.00,AD6XL-WX-0.1,2013-03-22 15:19:00,
2013-03-22 08:24:00,34.1,34.1,30.35,North,-999,-999.0,-999.0,100,0.00,,,0.00,AD6XL-WX-0.1,2013-03-22 15:24:00,
2013-03-22 08:29:00,34.2,34.2,30.35,North,-999,-999.0,-999.0,100,0.00,,,0.00,AD6XL-WX-0.1,2013-03-22 15:29:00,
2013-03-22 08:34:00,34.4,34.4,30.35,North,-999,-999.0,-999.0,100,0.00,,,0.00,AD6XL-WX-0.1,2013-03-22 15:34:00,
2013-03-22 08:39:00,34.6,34.6,30.34,North,-999,-999.0,-999.0,100,0.00,,,0.00,AD6XL-WX-0.1,2013-03-22 15:39:00,
2013-03-22 08:44:00,34.6,34.6,30.35,North,-999,-999.0,-999.0,100,0.00,,,0.00,AD6XL-WX-0.1,2013-03-22 15:44:00,
2013-03-22 08:49:00,34.7,34.7,30.35,North,-999,-999.0,-999.0,100,0.00,,,0.00,AD6XL-WX-0.1,2013-03-22 15:49:00,
2013-03-22 08:54:00,34.7,34.7,30.35,North,-999,-999.0,-999.0,100,0.00,,,0.00,AD6XL-WX-0.1,2013-03-22 15:54:00,
2013-03-22 08:59:00,34.8,34.8,30.35,North,-999,-999.0,-999.0,100,0.00,,,0.00,AD6XL-WX-0.1,2013-03-22 15:59:00,
2013-03-22 09:05:00,34.9,34.9,30.35,North,-999,-999.0,-999.0,100,0.00,,,0.00,AD6XL-WX-0.1,2013-03-22 16:05:00,
2013-03-22 09:10:00,35.0,35.0,30.36,North,-999,-999.0,-999.0,100,0.00,,,0.00,AD6XL-WX-0.1,2013-03-22 16:10:00,
2013-03-22 09:15:00,35.1,35.1,30.36,North,-999,-999.0,-999.0,100,0.00,,,0.00,AD6XL-WX-0.1,2013-03-22 16:15:00,
2013-03-22 09:20:00,35.4,35.4,30.36,North,-999,-999.0,-999.0,100,0.00,,,0.00,AD6XL-WX-0.1,2013-03-22 16:20:00,
2013-03-22 09:25:00,35.7,35.7,30.36,North,-999,-999.0,-999.0,100,0.00,,,0.00,AD6XL-WX-0.1,2013-03-22 16:25:00,
2013-03-22 09:30:00,35.9,35.9,30.36,North,-999,-999.0,-999.0,100,0.00,,,0.00,AD6XL-WX-0.1,2013-03-22 16:30:00,
2013-03-22 09:35:00,36.1,36.1,30.36,North,-999,-999.0,-999.0,100,0.00,,,0.00,AD6XL-WX-0.1,2013-03-22 16:35:00,
2013-03-22 09:40:00,36.6,36.6,30.36,North,-999,-999.0,-999.0,100,0.00,,,0.00,AD6XL-WX-0.1,2013-03-22 16:40:00,
2013-03-22 09:45:00,37.2,37.2,30.36,North,-999,-999.0,-999.0,100,0.00,,,0.00,AD6XL-WX-0.1,2013-03-22 16:45:00,
2013-03-22 09:50:00,37.7,37.7,30.36,North,-999,-999.0,-999.0,99,0.00,,,0.00,AD6XL-WX-0.1,2013-03-22 16:50:00,
2013-03-22 09:55:00,38.4,38.0,30.36,North,-999,-999.0,-999.0,98,0.00,,,0.00,AD6XL-WX-0.1,2013-03-22 16:55:00,
2013-03-22 10:00:00,39.0,38.3,30.36,North,-999,-999.0,-999.0,97,0.00,,,0.00,AD6XL-WX-0.1,2013-03-22 17:00:00,
2013-03-22 10:05:00,39.6,38.7,30.36,North,-999,-999.0,-999.0,96,0.00,,,0.00,AD6XL-WX-0.1,2013-03-22 17:05:00,
2013-03-22 10:11:00,40.1,38.8,30.36,North,-999,-999.0,-999.0,95,0.00,,,0.00,AD6XL-WX-0.1,2013-03-22 17:11:00,
2013-03-22 10:16:00,40.5,39.1,30.36,North,-999,-999.0,-999.0,94,0.00,,,0.00,AD6XL-WX-0.1,2013-03-22 17:16:00,
2013-03-22 10:21:00,40.8,39.3,30.36,North,-999,-999.0,-999.0,94,0.00,,,0.00,AD6XL-WX-0.1,2013-03-22 17:21:00,
2013-03-22 10:27:00,40.8,39.1,30.36,North,-999,-999.0,-999.0,93,0.00,,,0.00,AD6XL-WX-0.1,2013-03-22 17:27:00,
2013-03-22 10:32:00,40.9,38.9,30.36,North,-999,-999.0,-999.0,92,0.00,,,0.00,AD6XL-WX-0.1,2013-03-22 17:32:00,
2013-03-22 10:37:00,41.0,38.8,30.36,North,-999,-999.0,-999.0,91,0.00,,,0.00,AD6XL-WX-0.1,2013-03-22 17:37:00,
2013-03-22 10:42:00,41.2,38.6,30.36,North,-999,-999.0,-999.0,90,0.00,,,0.00,AD6XL-WX-0.1,2013-03-22 17:42:00,
2013-03-22 10:47:00,41.5,37.9,30.36,North,-999,-999.0,-999.0,86,0.00,,,0.00,AD6XL-WX-0.1,2013-03-22 17:47:00,
2013-03-22 10:52:00,42.0,37.5,30.36,North,-999,-999.0,-999.0,83,0.00,,,0.00,AD6XL-WX-0.1,2013-03-22 17:52:00,
2013-03-22 10:57:00,42.5,36.2,30.36,North,-999,-999.0,-999.0,78,0.00,,,0.00,AD6XL-WX-0.1,2013-03-22 17:57:00,
2013-03-22 11:02:00,42.8,36.6,30.36,North,-999,-999.0,-999.0,78,0.00,,,0.00,AD6XL-WX-0.1,2013-03-22 18:02:00,
2013-03-22 11:07:00,43.0,36.6,30.36,North,-999,-999.0,-999.0,77,0.00,,,0.00,AD6XL-WX-0.1,2013-03-22 18:07:00,
2013-03-22 11:12:00,43.3,37.1,30.36,North,-999,-999.0,-999.0,78,0.00,,,0.00,AD6XL-WX-0.1,2013-03-22 18:12:00,
2013-03-22 11:17:00,43.3,35.8,30.36,North,-999,-999.0,-999.0,74,0.00,,,0.00,AD6XL-WX-0.1,2013-03-22 18:17:00,
2013-03-22 11:22:00,43.4,34.2,30.36,North,-999,-999.0,-999.0,69,0.00,,,0.00,AD6XL-WX-0.1,2013-03-22 18:22:00,
2013-03-22 11:27:00,43.7,35.5,30.36,North,-999,-999.0,-999.0,72,0.00,,,0.00,AD6XL-WX-0.1,2013-03-22 18:27:00,
2013-03-22 11:33:00,44.1,34.0,30.36,North,-999,-999.0,-999.0,67,0.00,,,0.00,AD6XL-WX-0.1,2013-03-22 18:33:00,
2013-03-22 11:38:00,45.0,35.3,30.36,North,-999,-999.0,-999.0,68,0.00,,,0.00,AD6XL-WX-0.1,2013-03-22 18:38:00,
2013-03-22 11:43:00,45.6,35.3,30.36,North,-999,-999.0,-999.0,67,0.00,,,0.00,AD6XL-WX-0.1,2013-03-22 18:43:00,
2013-03-22 11:48:00,45.6,34.0,30.36,North,-999,-999.0,-999.0,63,0.00,,,0.00,AD6XL-WX-0.1,2013-03-22 18:48:00,
2013-03-22 11:53:00,45.7,33.7,30.36,North,-999,-999.0,-999.0,62,0.00,,,0.00,AD6XL-WX-0.1,2013-03-22 18:53:00,
2013-03-22 11:58:00,45.5,34.0,30.36,North,-999,-999.0,-999.0,63,0.00,,,0.00,AD6XL-WX-0.1,2013-03-22 18:58:00,
2013-03-22 12:03:00,45.6,34.9,30.36,North,-999,-999.0,-999.0,65,0.00,,,0.00,AD6XL-WX-0.1,2013-03-22 19:03:00,
2013-03-22 12:08:00,46.0,35.0,30.36,North,-999,-999.0,-999.0,65,0.00,,,0.00,AD6XL-WX-0.1,2013-03-22 19:08:00,
2013-03-22 12:13:00,46.3,34.9,30.36,North,-999,-999.0,-999.0,64,0.00,,,0.00,AD6XL-WX-0.1,2013-03-22 19:13:00,
2013-03-22 12:18:00,46.8,35.4,30.36,North,-999,-999.0,-999.0,64,0.00,,,0.00,AD6XL-WX-0.1,2013-03-22 19:18:00,
2013-03-22 12:23:00,47.1,34.4,30.36,North,-999,-999.0,-999.0,61,0.00,,,0.00,AD6XL-WX-0.1,2013-03-22 19:23:00,
2013-03-22 12:28:00,47.5,34.0,30.36,North,-999,-999.0,-999.0,59,0.00,,,0.00,AD6XL-WX-0.1,2013-03-22 19:28:00,
2013-03-22 12:33:00,47.4,33.2,30.36,North,-999,-999.0,-999.0,57,0.00,,,0.00,AD6XL-WX-0.1,2013-03-22 19:33:00,
2013-03-22 12:38:00,47.0,33.3,30.36,North,-999,-999.0,-999.0,58,0.00,,,0.00,AD6XL-WX-0.1,2013-03-22 19:38:00,
2013-03-22 12:44:00,46.9,34.8,30.36,North,-999,-999.0,-999.0,62,0.00,,,0.00,AD6XL-WX-0.1,2013-03-22 19:44:00,
2013-03-22 12:49:00,46.9,35.5,30.36,North,-999,-999.0,-999.0,64,0.00,,,0.00,AD6XL-WX-0.1,2013-03-22 19:49:00,
2013-03-22 12:54:00,46.9,35.2,30.36,North,-999,-999.0,-999.0,63,0.00,,,0.00,AD6XL-WX-0.1,2013-03-22 19:54:00,
2013-03-22 12:59:00,46.8,35.9,30.36,North,-999,-999.0,-999.0,65,0.00,,,0.00,AD6XL-WX-0.1,2013-03-22 19:59:00,
2013-03-22 13:04:00,46.6,36.2,30.36,North,-999,-999.0,-999.0,66,0.00,,,0.00,AD6XL-WX-0.1,2013-03-22 20:04:00,
2013-03-22 13:09:00,46.6,36.8,30.36,North,-999,-999.0,-999.0,68,0.00,,,0.00,AD6XL-WX-0.1,2013-03-22 20:09:00,
2013-03-22 13:14:00,46.8,37.5,30.36,North,-999,-999.0,-999.0,70,0.00,,,0.00,AD6XL-WX-0.1,2013-03-22 20:14:00,
2013-03-22 13:19:00,46.9,38.0,30.36,North,-999,-999.0,-999.0,70,0.00,,,0.00,AD6XL-WX-0.1,2013-03-22 20:19:00,
2013-03-22 13:24:00,47.1,38.1,30.35,North,-999,-999.0,-999.0,70,0.00,,,0.00,AD6XL-WX-0.1,2013-03-22 20:24:00,
2013-03-22 13:29:00,47.4,38.1,30.35,North,-999,-999.0,-999.0,69,0.00,,,0.00,AD6XL-WX-0.1,2013-03-22 20:29:00,
2013-03-22 13:34:00,47.9,37.7,30.35,North,-999,-999.0,-999.0,67,0.00,,,0.00,AD6XL-WX-0.1,2013-03-22 20:34:00,
2013-03-22 13:39:00,48.6,38.1,30.35,North,-999,-999.0,-999.0,66,0.00,,,0.00,AD6XL-WX-0.1,2013-03-22 20:39:00,
2013-03-22 13:44:00,49.7,38.2,30.35,North,-999,-999.0,-999.0,64,0.00,,,0.00,AD6XL-WX-0.1,2013-03-22 20:44:00,
2013-03-22 13:50:00,50.9,38.2,30.35,North,-999,-999.0,-999.0,61,0.00,,,0.00,AD6XL-WX-0.1,2013-03-22 20:50:00,
2013-03-22 13:55:00,51.7,37.3,30.35,North,-999,-999.0,-999.0,57,0.00,,,0.00,AD6XL-WX-0.1,2013-03-22 20:55:00,
2013-03-22 14:00:00,51.5,36.1,30.35,North,-999,-999.0,-999.0,55,0.00,,,0.00,AD6XL-WX-0.1,2013-03-22 21:00:00,
2013-03-22 14:05:00,51.1,37.4,30.35,North,-999,-999.0,-999.0,59,0.00,,,0.00,AD6XL-WX-0.1,2013-03-22 21:05:00,
2013-03-22 14:10:00,50.6,37.2,30.35,North,-999,-999.0,-999.0,60,0.00,,,0.00,AD6XL-WX-0.1,2013-03-22 21:10:00,
2013-03-22 14:15:00,49.0,38.7,30.35,North,-999,-999.0,-999.0,67,0.01,,,0.01,AD6XL-WX-0.1,2013-03-22 21:15:00,
2013-03-22 14:20:00,47.7,38.9,30.35,North,-999,-999.0,-999.0,71,0.01,,,0.01,AD6XL-WX-0.1,2013-03-22 21:20:00,
2013-03-22 14:25:00,47.1,39.3,30.35,North,-999,-999.0,-999.0,74,0.01,,,0.01,AD6XL-WX-0.1,2013-03-22 21:25:00,
2013-03-22 14:30:00,46.7,40.7,30.36,North,-999,-999.0,-999.0,79,0.01,,,0.01,AD6XL-WX-0.1,2013-03-22 21:30:00,
2013-03-22 14:35:00,46.6,41.4,30.35,North,-999,-999.0,-999.0,82,0.01,,,0.01,AD6XL-WX-0.1,2013-03-22 21:35:00,
2013-03-22 14:40:00,46.6,41.5,30.35,North,-999,-999.0,-999.0,82,0.02,,,0.02,AD6XL-WX-0.1,2013-03-22 21:40:00,
2013-03-22 14:45:00,46.9,41.7,30.35,North,-999,-999.0,-999.0,81,0.02,,,0.02,AD6XL-WX-0.1,2013-03-22 21:45:00,
2013-03-22 14:50:00,47.1,41.1,30.35,North,-999,-999.0,-999.0,79,0.02,,,0.02,AD6XL-WX-0.1,2013-03-22 21:50:00,
2013-03-22 14:56:00,47.4,41.4,30.35,North,-999,-999.0,-999.0,79,0.02,,,0.02,AD6XL-WX-0.1,2013-03-22 21:56:00,
2013-03-22 15:01:00,47.7,42.3,30.34,North,-999,-999.0,-999.0,81,0.02,,,0.02,AD6XL-WX-0.1,2013-03-22 22:01:00,
2013-03-22 15:06:00,48.0,42.0,30.34,North,-999,-999.0,-999.0,79,0.02,,,0.02,AD6XL-WX-0.1,2013-03-22 22:06:00,
2013-03-22 15:11:00,48.0,41.6,30.34,North,-999,-999.0,-999.0,78,0.02,,,0.02,AD6XL-WX-0.1,2013-03-22 22:11:00,
2013-03-22 15:17:00,48.1,41.7,30.34,North,-999,-999.0,-999.0,78,0.01,,,0.02,AD6XL-WX-0.1,2013-03-22 22:17:00,
2013-03-22 15:22:00,48.6,42.8,30.34,North,-999,-999.0,-999.0,80,0.01,,,0.02,AD6XL-WX-0.1,2013-03-22 22:22:00,
2013-03-22 15:27:00,49.3,42.4,30.33,North,-999,-999.0,-999.0,77,0.01,,,0.02,AD6XL-WX-0.1,2013-03-22 22:27:00,
2013-03-22 15:32:00,49.8,40.0,30.34,North,-999,-999.0,-999.0,68,0.01,,,0.02,AD6XL-WX-0.1,2013-03-22 22:32:00,
2013-03-22 15:37:00,50.4,40.4,30.34,North,-999,-999.0,-999.0,68,0.01,,,0.02,AD6XL-WX-0.1,2013-03-22 22:37:00,
2013-03-22 15:42:00,50.8,40.1,30.34,North,-999,-999.0,-999.0,66,0.00,,,0.02,AD6XL-WX-0.1,2013-03-22 22:42:00,
2013-03-22 15:47:00,51.1,39.3,30.34,North,-999,-999.0,-999.0,63,0.00,,,0.02,AD6XL-WX-0.1,2013-03-22 22:47:00,
2013-03-22 15:52:00,51.1,39.0,30.34,North,-999,-999.0,-999.0,63,0.00,,,0.02,AD6XL-WX-0.1,2013-03-22 22:52:00,
2013-03-22 15:57:00,51.1,39.7,30.34,North,-999,-999.0,-999.0,64,0.00,,,0.02,AD6XL-WX-0.1,2013-03-22 22:57:00,
2013-03-22 16:03:00,51.1,39.4,30.34,North,-999,-999.0,-999.0,64,0.00,,,0.02,AD6XL-WX-0.1,2013-03-22 23:03:00,
2013-03-22 16:08:00,50.7,39.3,30.34,North,-999,-999.0,-999.0,64,0.00,,,0.02,AD6XL-WX-0.1,2013-03-22 23:08:00,
2013-03-22 16:13:00,50.2,39.4,30.34,North,-999,-999.0,-999.0,66,0.00,,,0.02,AD6XL-WX-0.1,2013-03-22 23:13:00,
2013-03-22 16:18:00,50.0,40.3,30.34,North,-999,-999.0,-999.0,69,0.00,,,0.02,AD6XL-WX-0.1,2013-03-22 23:18:00,
2013-03-22 16:23:00,50.0,39.9,30.33,North,-999,-999.0,-999.0,68,0.00,,,0.02,AD6XL-WX-0.1,2013-03-22 23:23:00,
2013-03-22 16:28:00,49.9,40.2,30.33,North,-999,-999.0,-999.0,69,0.00,,,0.02,AD6XL-WX-0.1,2013-03-22 23:28:00,
2013-03-22 16:33:00,50.1,40.1,30.33,North,-999,-999.0,-999.0,68,0.00,,,0.02,AD6XL-WX-0.1,2013-03-22 23:33:00,
2013-03-22 16:38:00,50.2,39.9,30.33,North,-999,-999.0,-999.0,67,0.00,,,0.02,AD6XL-WX-0.1,2013-03-22 23:38:00,
2013-03-22 16:43:00,50.2,39.7,30.33,North,-999,-999.0,-999.0,67,0.00,,,0.02,AD6XL-WX-0.1,2013-03-22 23:43:00,
2013-03-22 16:48:00,50.2,39.0,30.33,North,-999,-999.0,-999.0,65,0.00,,,0.02,AD6XL-WX-0.1,2013-03-22 23:48:00,
2013-03-22 16:53:00,49.8,39.3,30.34,North,-999,-999.0,-999.0,66,0.00,,,0.02,AD6XL-WX-0.1,2013-03-22 23:53:00,
2013-03-22 16:59:00,49.6,40.9,30.34,North,-999,-999.0,-999.0,71,0.00,,,0.02,AD6XL-WX-0.1,2013-03-22 23:59:00,
2013-03-22 17:04:00,49.1,41.0,30.34,North,-999,-999.0,-999.0,73,0.00,,,0.02,AD6XL-WX-0.1,2013-03-23 00:04:00,
2013-03-22 17:09:00,48.9,41.5,30.34,North,-999,-999.0,-999.0,75,0.00,,,0.02,AD6XL-WX-0.1,2013-03-23 00:09:00,
2013-03-22 17:14:00,48.8,41.6,30.34,North,-999,-999.0,-999.0,76,0.00,,,0.02,AD6XL-WX-0.1,2013-03-23 00:14:00,
2013-03-22 17:19:00,48.7,41.7,30.34,North,-999,-999.0,-999.0,76,0.00,,,0.02,AD6XL-WX-0.1,2013-03-23 00:19:00,
2013-03-22 17:24:00,48.7,41.6,30.34,North,-999,-999.0,-999.0,76,0.00,,,0.02,AD6XL-WX-0.1,2013-03-23 00:24:00,
2013-03-22 17:29:00,48.5,40.8,30.34,North,-999,-999.0,-999.0,74,0.00,,,0.02,AD6XL-WX-0.1,2013-03-23 00:29:00,
2013-03-22 17:34:00,48.7,41.0,30.34,North,-999,-999.0,-999.0,74,0.00,,,0.02,AD6XL-WX-0.1,2013-03-23 00:34:00,
2013-03-22 17:39:00,48.7,40.5,30.34,North,-999,-999.0,-999.0,73,0.00,,,0.02,AD6XL-WX-0.1,2013-03-23 00:39:00,
2013-03-22 17:44:00,48.5,39.3,30.34,North,-999,-999.0,-999.0,70,0.00,,,0.02,AD6XL-WX-0.1,2013-03-23 00:44:00,
2013-03-22 17:49:00,48.4,38.8,30.34,North,-999,-999.0,-999.0,69,0.00,,,0.02,AD6XL-WX-0.1,2013-03-23 00:49:00,
2013-03-22 17:54:00,48.2,38.6,30.34,North,-999,-999.0,-999.0,69,0.00,,,0.02,AD6XL-WX-0.1,2013-03-23 00:54:00,
2013-03-22 17:59:00,47.9,37.7,30.34,North,-999,-999.0,-999.0,67,0.00,,,0.02,AD6XL-WX-0.1,2013-03-23 00:59:00,
2013-03-22 18:04:00,47.5,37.3,30.34,North,-999,-999.0,-999.0,67,0.00,,,0.02,AD6XL-WX-0.1,2013-03-23 01:04:00,
2013-03-22 18:10:00,47.3,37.6,30.34,North,-999,-999.0,-999.0,69,0.00,,,0.02,AD6XL-WX-0.1,2013-03-23 01:10:00,
2013-03-22 18:15:00,47.1,37.5,30.34,North,-999,-999.0,-999.0,69,0.00,,,0.02,AD6XL-WX-0.1,2013-03-23 01:15:00,
2013-03-22 18:20:00,46.9,37.8,30.34,North,-999,-999.0,-999.0,70,0.00,,,0.02,AD6XL-WX-0.1,2013-03-23 01:20:00,
2013-03-22 18:25:00,46.5,38.3,30.34,North,-999,-999.0,-999.0,72,0.00,,,0.02,AD6XL-WX-0.1,2013-03-23 01:25:00,
2013-03-22 18:30:00,46.0,38.8,30.34,North,-999,-999.0,-999.0,75,0.00,,,0.02,AD6XL-WX-0.1,2013-03-23 01:30:00,
2013-03-22 18:35:00,45.6,38.6,30.34,North,-999,-999.0,-999.0,76,0.00,,,0.02,AD6XL-WX-0.1,2013-03-23 01:35:00,
2013-03-22 18:40:00,45.5,38.9,30.34,North,-999,-999.0,-999.0,77,0.00,,,0.02,AD6XL-WX-0.1,2013-03-23 01:40:00,
2013-03-22 18:45:00,45.3,38.4,30.34,North,-999,-999.0,-999.0,76,0.00,,,0.02,AD6XL-WX-0.1,2013-03-23 01:45:00,
2013-03-22 18:50:00,45.3,37.8,30.34,North,-999,-999.0,-999.0,74,0.00,,,0.02,AD6XL-WX-0.1,2013-03-23 01:50:00,
2013-03-22 18:55:00,45.1,37.2,30.34,North,-999,-999.0,-999.0,73,0.00,,,0.02,AD6XL-WX-0.1,2013-03-23 01:55:00,
2013-03-22 19:00:00,44.8,36.8,30.34,North,-999,-999.0,-999.0,73,0.01,,,0.03,AD6XL-WX-0.1,2013-03-23 02:00:00,
2013-03-22 19:05:00,44.6,36.2,30.34,North,-999,-999.0,-999.0,72,0.01,,,0.03,AD6XL-WX-0.1,2013-03-23 02:05:00,
2013-03-22 19:10:00,44.5,36.0,30.34,North,-999,-999.0,-999.0,71,0.01,,,0.03,AD6XL-WX-0.1,2013-03-23 02:10:00,
2013-03-22 19:16:00,44.2,35.2,30.34,North,-999,-999.0,-999.0,70,0.01,,,0.03,AD6XL-WX-0.1,2013-03-23 02:16:00,
2013-03-22 19:21:00,43.9,34.7,30.34,North,-999,-999.0,-999.0,69,0.01,,,0.03,AD6XL-WX-0.1,2013-03-23 02:21:00,
2013-03-22 19:26:00,43.7,34.3,30.34,North,-999,-999.0,-999.0,69,0.01,,,0.03,AD6XL-WX-0.1,2013-03-23 02:26:00,
2013-03-22 19:31:00,43.5,34.4,30.34,North,-999,-999.0,-999.0,69,0.01,,,0.03,AD6XL-WX-0.1,2013-03-23 02:31:00,
2013-03-22 19:36:00,43.3,34.6,30.35,North,-999,-999.0,-999.0,71,0.01,,,0.03,AD6XL-WX-0.1,2013-03-23 02:36:00,
2013-03-22 19:41:00,42.9,35.0,30.35,North,-999,-999.0,-999.0,73,0.01,,,0.03,AD6XL-WX-0.1,2013-03-23 02:41:00,
2013-03-22 19:46:00,42.4,35.3,30.35,North,-999,-999.0,-999.0,75,0.01,,,0.03,AD6XL-WX-0.1,2013-03-23 02:46:00,
2013-03-22 19:51:00,42.0,35.4,30.35,North,-999,-999.0,-999.0,77,0.01,,,0.03,AD6XL-WX-0.1,2013-03-23 02:51:00,
2013-03-22 19:56:00,41.5,35.4,30.35,North,-999,-999.0,-999.0,78,0.00,,,0.03,AD6XL-WX-0.1,2013-03-23 02:56:00,
2013-03-22 20:02:00,41.0,35.4,30.35,North,-999,-999.0,-999.0,80,0.00,,,0.03,AD6XL-WX-0.1,2013-03-23 03:02:00,
2013-03-22 20:07:00,40.6,35.3,30.35,North,-999,-999.0,-999.0,81,0.00,,,0.03,AD6XL-WX-0.1,2013-03-23 03:07:00,
2013-03-22 20:12:00,40.3,35.2,30.35,North,-999,-999.0,-999.0,81,0.00,,,0.03,AD6XL-WX-0.1,2013-03-23 03:12:00,
2013-03-22 20:17:00,39.9,35.2,30.35,North,-999,-999.0,-999.0,82,0.00,,,0.03,AD6XL-WX-0.1,2013-03-23 03:17:00,
2013-03-22 20:22:00,39.7,35.2,30.35,North,-999,-999.0,-999.0,83,0.00,,,0.03,AD6XL-WX-0.1,2013-03-23 03:22:00,
2013-03-22 20:27:00,39.4,35.2,30.35,North,-999,-999.0,-999.0,84,0.00,,,0.03,AD6XL-WX-0.1,2013-03-23 03:27:00,
2013-03-22 20:32:00,39.1,35.1,30.35,North,-999,-999.0,-999.0,85,0.00,,,0.03,AD6XL-WX-0.1,2013-03-23 03:32:00,
2013-03-22 20:37:00,38.8,34.9,30.36,North,-999,-999.0,-999.0,85,0.00,,,0.03,AD6XL-WX-0.1,2013-03-23 03:37:00,
2013-03-22 20:42:00,38.6,34.8,30.36,North,-999,-999.0,-999.0,86,0.00,,,0.03,AD6XL-WX-0.1,2013-03-23 03:42:00,
2013-03-22 20:48:00,38.5,34.8,30.36,North,-999,-999.0,-999.0,86,0.00,,,0.03,AD6XL-WX-0.1,2013-03-23 03:48:00,
2013-03-22 20:53:00,38.3,34.7,30.36,North,-999,-999.0,-999.0,86,0.00,,,0.03,AD6XL-WX-0.1,2013-03-23 03:53:00,
2013-03-22 20:58:00,38.1,34.6,30.36,North,-999,-999.0,-999.0,86,0.00,,,0.03,AD6XL-WX-0.1,2013-03-23 03:58:00,
2013-03-22 21:00:00,38.1,34.5,30.36,North,-999,-999.0,-999.0,86,0.00,,,0.03,AD6XL-WX-0.1,2013-03-23 04:00:00,
2013-03-22 21:05:00,38.0,34.3,30.36,North,-999,-999.0,-999.0,86,0.00,,,0.03,AD6XL-WX-0.1,2013-03-23 04:05:00,
2013-03-22 21:10:00,37.9,34.3,30.36,North,-999,-999.0,-999.0,86,0.00,,,0.03,AD6XL-WX-0.1,2013-03-23 04:10:00,
2013-03-22 21:15:00,37.8,34.4,30.37,North,-999,-999.0,-999.0,87,0.00,,,0.03,AD6XL-WX-0.1,2013-03-23 04:15:00,
2013-03-22 21:20:00,37.8,34.6,30.37,North,-999,-999.0,-999.0,88,0.00,,,0.03,AD6XL-WX-0.1,2013-03-23 04:20:00,
2013-03-22 21:25:00,37.8,34.7,30.37,North,-999,-999.0,-999.0,88,0.00,,,0.03,AD6XL-WX-0.1,2013-03-23 04:25:00,
2013-03-22 21:31:00,37.8,34.8,30.37,North,-999,-999.0,-999.0,88,0.00,,,0.03,AD6XL-WX-0.1,2013-03-23 04:31:00,
2013-03-22 21:36:00,37.8,34.8,30.38,North,-999,-999.0,-999.0,89,0.00,,,0.03,AD6XL-WX-0.1,2013-03-23 04:36:00,
2013-03-22 21:41:00,37.7,35.0,30.38,North,-999,-999.0,-999.0,89,0.00,,,0.03,AD6XL-WX-0.1,2013-03-23 04:41:00,
2013-03-22 21:46:00,37.7,35.2,30.38,North,-999,-999.0,-999.0,90,0.00,,,0.03,AD6XL-WX-0.1,2013-03-23 04:46:00,
2013-03-22 21:51:00,37.7,35.4,30.38,North,-999,-999.0,-999.0,91,0.00,,,0.03,AD6XL-WX-0.1,2013-03-23 04:51:00,
2013-03-22 21:56:00,37.6,35.3,30.38,North,-999,-999.0,-999.0,91,0.00,,,0.03,AD6XL-WX-0.1,2013-03-23 04:56:00,
2013-03-22 22:01:00,37.5,35.2,30.38,North,-999,-999.0,-999.0,91,0.00,,,0.03,AD6XL-WX-0.1,2013-03-23 05:01:00,
2013-03-22 22:06:00,37.4,35.1,30.38,North,-999,-999.0,-999.0,91,0.00,,,0.03,AD6XL-WX-0.1,2013-03-23 05:06:00,
2013-03-22 22:11:00,37.2,35.0,30.38,North,-999,-999.0,-999.0,91,0.00,,,0.03,AD6XL-WX-0.1,2013-03-23 05:11:00,
2013-03-22 22:16:00,37.1,35.0,30.38,North,-999,-999.0,-999.0,91,0.00,,,0.03,AD6XL-WX-0.1,2013-03-23 05:16:00,
2013-03-22 22:22:00,36.9,34.9,30.39,North,-999,-999.0,-999.0,92,0.00,,,0.03,AD6XL-WX-0.1,2013-03-23 05:22:00,
2013-03-22 22:27:00,36.8,34.8,30.39,North,-999,-999.0,-999.0,92,0.00,,,0.03,AD6XL-WX-0.1,2013-03-23 05:27:00,
2013-03-22 22:32:00,36.7,34.8,30.39,North,-999,-999.0,-999.0,92,0.00,,,0.03,AD6XL-WX-0.1,2013-03-23 05:32:00,
2013-03-22 22:37:00,36.5,34.7,30.38,North,-999,-999.0,-999.0,93,0.00,,,0.03,AD6XL-WX-0.1,2013-03-23 05:37:00,
2013-03-22 22:42:00,36.3,34.5,30.38,North,-999,-999.0,-999.0,92,0.00,,,0.03,AD6XL-WX-0.1,2013-03-23 05:42:00,
2013-03-22 22:47:00,36.1,34.3,30.39,North,-999,-999.0,-999.0,93,0.00,,,0.03,AD6XL-WX-0.1,2013-03-23 05:47:00,
2013-03-22 22:52:00,36.0,34.3,30.39,North,-999,-999.0,-999.0,93,0.00,,,0.03,AD6XL-WX-0.1,2013-03-23 05:52:00,
2013-03-22 22:57:00,36.0,34.3,30.39,North,-999,-999.0,-999.0,93,0.00,,,0.03,AD6XL-WX-0.1,2013-03-23 05:57:00,
2013-03-22 23:02:00,35.9,34.4,30.39,North,-999,-999.0,-999.0,93,0.00,,,0.03,AD6XL-WX-0.1,2013-03-23 06:02:00,
2013-03-22 23:08:00,35.9,34.4,30.39,North,-999,-999.0,-999.0,94,0.00,,,0.03,AD6XL-WX-0.1,2013-03-23 06:08:00,
2013-03-22 23:13:00,35.8,34.3,30.39,North,-999,-999.0,-999.0,94,0.00,,,0.03,AD6XL-WX-0.1,2013-03-23 06:13:00,
2013-03-22 23:18:00,35.7,34.4,30.39,North,-999,-999.0,-999.0,95,0.00,,,0.03,AD6XL-WX-0.1,2013-03-23 06:18:00,
2013-03-22 23:23:00,35.7,34.8,30.39,North,-999,-999.0,-999.0,96,0.00,,,0.03,AD6XL-WX-0.1,2013-03-23 06:23:00,
2013-03-22 23:28:00,35.8,34.8,30.39,North,-999,-999.0,-999.0,95,0.00,,,0.03,AD6XL-WX-0.1,2013-03-23 06:28:00,
2013-03-22 23:33:00,35.9,34.6,30.39,North,-999,-999.0,-999.0,94,0.00,,,0.03,AD6XL-WX-0.1,2013-03-23 06:33:00,
2013-03-22 23:38:00,35.9,34.4,30.39,North,-999,-999.0,-999.0,94,0.00,,,0.03,AD6XL-WX-0.1,2013-03-23 06:38:00,
2013-03-22 23:43:00,35.8,34.4,30.39,North,-999,-999.0,-999.0,94,0.00,,,0.03,AD6XL-WX-0.1,2013-03-23 06:43:00,
2013-03-22 23:48:00,35.7,34.4,30.39,North,-999,-999.0,-999.0,94,0.00,,,0.03,AD6XL-WX-0.1,2013-03-23 06:48:00,
2013-03-22 23:53:00,35.6,34.2,30.39,North,-999,-999.0,-999.0,94,0.00,,,0.03,AD6XL-WX-0.1,2013-03-23 06:53:00,
2013-03-22 23:58:00,35.4,34.2,30.39,North,-999,-999.0,-999.0,94,0.00,,,0.03,AD6XL-WX-0.1,2013-03-23 06:58:00,